Location: Bath
(44.1670°N, 71.9662°W)
Time: 02:48:27
(UTC+00:00)

Daily predictions for brighter satellites

Satellite Brightness Start Highest point End
(mag) Time Altitude Azimuth Time Altitude Azimuth Time Altitude Azimuth
SL-8 R/B 4.2 00:45:48 10° SSW 00:50:11 39° SE 00:54:36 10° ENE
ATLAS 3B R/B 3.1 00:45:33 10° NW 00:53:27 82° NE 01:01:13 10° SE
Cosmos 923 Rocket 4.2 00:53:46 10° SSW 00:59:05 82° WNW 01:04:28 10° NNE
Cosmos 1464 Rocket 4.1 00:53:06 10° N 00:59:25 87° W 01:05:38 10° S
ERS-1 Rocket 4.1 00:55:57 10° ESE 01:00:11 28° ENE 01:04:26 10° N
Cosmos 2278 Rocket 4.1 00:56:51 10° NW 01:01:34 28° WSW 01:06:15 10° SSW
CZ-4B R/B 4.0 00:57:44 10° S 01:02:55 50° W 01:08:05 10° NNW
Cosmos 2221 2.9 01:02:04 10° SSE 01:06:11 46° E 01:10:20 10° NNE
USA 245 4.4 01:07:06 10° E 01:07:56 11° ENE 01:08:45 10° NE
Lacrosse 5 rocket 3.2 01:06:46 10° W 01:10:44 35° NNW 01:14:40 10° NE
Okean-O 2.6 01:07:05 10° SSE 01:11:28 78° ENE 01:15:54 10° N
CZ-4C R/B 3.3 01:08:03 10° NNE 01:11:49 59° ESE 01:15:42 10° S
Cosmos 2297 3.9 01:07:08 10° NNW 01:12:50 62° ENE 01:18:05 12° SE
USA 186 4.3 01:13:28 10° SW 01:15:54 20° W 01:18:22 10° NW
Cosmos 1371 Rocket 4.1 01:11:50 10° NNW 01:17:14 78° ENE 01:22:23 11° SSE
Meteor 1-26 Rocket 4.4 01:11:44 10° S 01:17:47 83° E 01:23:49 10° NNE
MetOp-B 4.3 01:12:56 10° SSE 01:18:12 63° ENE 01:23:31 10° N
Lacrosse 5 2.4 01:17:02 10° NW 01:21:59 51° SW 01:26:27 12° SSE
ATLAS 2AS CENTAUR R/B 4.5 01:16:57 10° WSW 01:23:42 38° NW 01:30:15 10° NNE
Cosmos 921 Rocket 3.1 01:20:06 10° S 01:24:30 63° ESE 01:28:57 10° NNE
BREEZE-M DEB (TANK) 2.9 01:22:13 10° SW 01:24:51 76° SSE 01:32:36 10° ENE
MOS 1 4.3 01:19:33 10° SSE 01:25:13 89° E 01:30:56 10° NNW
Cosmos 1420 Rocket 4.2 01:20:24 10° NNW 01:25:43 76° WSW 01:30:58 10° SSE
Cosmos 1634 Rocket 4.1 01:27:08 10° N 01:33:23 62° E 01:38:44 14° SSE
Cosmos 1378 4.3 01:30:42 10° SSW 01:33:47 38° WNW 01:36:53 10° N
Cosmos 1536 4.3 01:31:07 10° NNE 01:34:07 21° ENE 01:35:54 16° ESE
SPOT 3 Rocket 4.3 01:31:56 16° SE 01:35:37 39° ENE 01:40:22 10° N
Terra 2.2 01:32:53 17° SE 01:36:20 47° ENE 01:40:51 10° N
SL-16 R/B 2.8 01:31:22 10° SW 01:36:57 61° WNW 01:42:36 10° NNE
GEOS 3 Rocket 4.1 01:32:58 10° NE 01:37:40 35° ESE 01:42:17 10° S
IRS-1A Rocket 4.3 01:33:36 13° SSE 01:38:42 79° ENE 01:44:16 10° NNW
Meteor 2-6 Rocket 4.2 01:35:41 10° S 01:41:15 67° E 01:46:42 10° NNE
Cosmos 1743 2.4 01:38:37 10° N 01:42:15 82° E 01:44:46 19° S
Cosmos 2263 4.4 01:37:40 10° NNW 01:43:19 61° ENE 01:47:23 19° SE
Spot 2 Rocket 3.8 01:39:58 18° SE 01:43:32 51° ENE 01:48:24 10° N
SPOT 5 2.9 01:42:03 13° S 01:46:14 73° WSW 01:50:41 10° NNW
Cosmos 2369 Rocket 2.2 01:43:02 10° NNW 01:48:40 88° ENE 01:52:43 20° SSE
Resurs 01 Rocket 4.1 01:49:34 10° SW 01:52:38 18° W 01:55:41 10° NW
USA 229 DEB 4.0 01:47:40 10° NW 01:55:11 85° NE 02:01:06 20° SE
USA 229 4.0 01:47:45 10° NW 01:55:16 85° NE 02:01:12 20° SE
Tsikada Rocket 4.4 01:53:34 10° SSW 01:59:41 64° W 02:05:56 10° N
Okean 3 Rocket 3.5 01:55:37 10° N 02:00:01 75° E 02:02:32 25° SSE
ISS -2.9 01:57:53 10° NW 02:01:07 46° NNE 02:02:55 22° E
Cosmos 1726 1.8 02:00:17 10° N 02:03:22 55° E 02:04:12 40° SE
Cosmos 1656 Rocket 4.2 02:00:42 10° NW 02:06:00 52° WSW 02:09:58 18° S
Ariane Rocket 3.0 02:02:59 23° SSE 02:06:12 80° ENE 02:11:18 10° NNW
BREEZE-M DEB (TANK) 4.0 02:02:20 10° W 02:06:12 83° N 02:17:52 10° E
Cosmos 1842 Rocket 3.5 02:03:09 16° S 02:06:39 88° E 02:11:06 10° N
USA 32 4.4 02:02:24 10° SSW 02:07:34 64° W 02:12:46 10° N
Okean O Rocket 4.2 02:05:47 10° SW 02:08:17 15° W 02:10:49 10° NW
Aureole 3 Rocket 4.3 02:04:33 10° NNW 02:08:26 42° W 02:13:37 10° SSW
USA 276 1.9 02:07:08 10° WNW 02:08:59 47° WSW 02:08:59 47° WSW
ARGOS Delta rocket 4.1 02:06:54 19° S 02:10:38 71° W 02:15:30 10° NNW
Meteor 1-27 Rocket 4.1 02:08:53 25° SSE 02:11:33 43° E 02:16:44 10° NNE
Cosmos 1943 3.2 02:11:08 10° SSW 02:16:49 89° WNW 02:22:32 10° NNE
Cosmos 1452 Rocket 3.5 02:11:55 10° NNW 02:17:11 76° ENE 02:19:49 30° SSE
Cosmos 468 4.4 02:13:47 16° S 02:18:00 72° ESE 02:23:13 10° NNE
USA 306 3.8 02:14:54 10° NW 02:18:30 38° NNE 02:20:43 20° E
Spot 1 3.9 02:16:43 10° NNE 02:20:46 62° ESE 02:22:25 34° S
Landsat 4 4.3 02:24:14 27° SSW 02:25:42 44° W 02:29:04 10° NNW
Cosmos 1340 Rocket 3.3 02:26:01 38° ESE 02:26:34 40° E 02:30:19 10° NNE
SL-8 R/B 3.9 02:27:43 10° WSW 02:32:28 70° NNW 02:37:13 10° ENE
Meteor 2-9 Rocket 4.3 02:29:35 10° N 02:35:26 73° ENE 02:38:09 33° SSE
Sich 1 3.1 02:33:22 10° N 02:37:43 66° E 02:38:54 45° SE
ARIANE 5 R/B 3.9 02:36:47 23° E 02:37:53 26° ENE 02:41:28 10° N
ERS-1 Rocket 4.1 02:35:26 17° SSW 02:38:46 38° W 02:43:27 10° NNW
USA 59 Rocket 1.5 02:38:32 10° NNW 02:42:02 30° NE 02:44:22 20° E
FALCON 9 R/B 4.1 02:37:05 10° WSW 02:43:22 44° S 03:03:58 10° ESE
Cosmos 1733 2.9 02:39:54 10° N 02:43:24 65° E 02:43:36 63° ESE
Cosmos 1743 Rocket 3.5 02:45:07 10° N 02:49:32 81° E 02:50:36 51° SSE
Lacrosse 5 rocket 4.4 02:47:32 10° NW 02:50:07 15° N 02:52:41 10° NNE
H-2A R/B 4.1 02:50:26 21° E 02:51:15 22° ENE 02:54:32 10° NNE
Landsat 5 3.6 02:48:20 10° N 02:52:04 61° WNW 02:53:22 36° SW
Cosmos 1626 4.0 02:53:34 16° ENE 02:53:34 16° ENE 02:54:45 10° NE
Lacrosse 4 Rocket 3.4 02:49:33 10° N 02:52:32 19° NE 02:54:07 16° ENE
USA 281 3.3 02:49:24 32° SSE 02:52:43 74° WSW 02:59:20 10° NNW
Centaur D AC-29 4.2 02:47:21 10° SW 02:54:06 34° SSE 03:31:33 10° ESE
Cosmos 1092 Rocket 4.4 02:53:25 35° SE 02:55:28 47° E 03:01:27 10° NNE
Cosmos 614 Rocket 4.2 02:56:17 44° SE 02:57:14 50° ESE 03:02:16 10° NNE
MOS 1 Rocket 4.3 02:55:06 26° SSW 02:57:34 44° W 03:02:37 10° NNW
Meteor 1-19 Rocket 4.4 02:58:31 27° SSW 03:01:55 75° W 03:07:43 10° N
Cosmos 1302 Rocket 3.9 02:58:44 10° NNW 03:03:57 80° ENE 03:05:23 49° SSE
Okean 1 4.3 03:02:50 28° SW 03:04:17 40° WNW 03:07:58 10° N
Cosmos 1975 3.2 03:01:49 10° N 03:05:39 47° ENE 03:05:42 47° E
Meteor 1-11 Rocket 4.4 03:02:07 10° NNW 03:07:32 48° W 03:10:17 28° SSW
IRIDIUM 104 4.4 03:03:46 10° N 03:08:59 65° E 03:10:13 49° SE
Cosmos 2195 Rocket 4.4 03:06:59 41° SSE 03:09:11 71° E 03:15:16 10° NNE
Cosmos 1536 4.3 03:06:44 10° NNW 03:10:05 28° W 03:11:11 24° WSW
Nadezhda 4 Rocket 4.1 03:09:39 28° SSW 03:13:00 70° W 03:19:15 10° N
Terra 3.9 03:11:35 13° SW 03:14:10 19° W 03:17:33 10° NW
IRIDIUM 114 4.2 03:12:53 10° N 03:18:08 79° E 03:19:20 54° SSE
Molniya-1 4.4 03:16:16 23° SW 03:18:42 73° NW 03:28:30 10° NE
CZ-2C R/B 3.5 03:14:56 10° NNE 03:19:27 77° ESE 03:19:56 67° SSE
Cosmos 1340 3.1 03:16:12 10° NNW 03:19:13 47° W 03:19:13 47° W
Cosmos 1818 3.9 03:19:30 44° ESE 03:19:33 44° ESE 03:24:44 10° NE
IRIDIUM 103 4.2 03:22:02 10° N 03:27:18 86° W 03:28:28 55° S
Cosmos 1328 Rocket 3.5 03:30:08 68° E 03:30:09 68° E 03:34:28 10° NNE
Cosmos 1833 Rocket 3.6 03:31:27 30° E 03:31:27 30° E 03:36:06 10° NE
NOSS 2-1 (C) 3.7 03:27:40 10° NW 03:31:39 77° NE 03:32:22 62° ESE
Cosmos 2369 Rocket 4.4 03:29:20 10° WNW 03:31:50 13° W 03:34:20 10° WSW
Cosmos 1151 Rocket 3.8 03:31:33 37° WSW 03:32:38 46° WNW 03:36:50 10° N
Spot 4 4.3 03:33:19 45° E 03:34:01 48° ENE 03:38:35 10° N
ISS -1.4 03:34:43 10° WNW 03:35:42 16° W 03:35:42 16° W
BREEZE-M DEB (TANK) 3.6 03:40:13 48° SSW 03:41:33 63° SE 03:56:31 10° ENE
Cosmos 1470 Rocket 3.8 03:39:42 10° N 03:44:07 57° E 03:44:10 57° E
Cosmos 1766 3.8 03:43:08 10° N 03:46:15 51° NE 03:46:15 51° NE
BREEZE-M DEB (TANK) 3.3 03:42:16 10° WSW 03:50:59 59° NNW 03:53:48 10° NE
Cosmos 1805 4.5 03:48:40 10° NNW 03:51:43 32° W 03:51:43 32° W
USA 306 4.1 03:48:35 10° WNW 03:50:49 29° W 03:50:49 29° W
Cosmos 2026 Rocket 4.2 03:50:53 39° SSW 03:53:16 65° W 03:59:31 10° N
H-2A R/B 3.8 03:49:49 10° NE 03:52:36 21° E 03:52:36 21° E
ALOS 2 3.0 03:53:28 51° E 03:53:36 52° ENE 03:57:52 10° N
Cosmos 1666 Rocket 3.8 03:49:23 10° NNW 03:53:37 56° W 03:53:39 56° W
Cosmos 1470 4.1 03:50:46 10° N 03:53:30 30° NE 03:53:30 30° NE
Cosmos 1633 Rocket 3.1 03:49:50 10° NNW 03:54:13 69° W 03:54:16 69° W
PSLV R/B 4.4 03:51:53 10° N 03:55:50 53° WNW 03:56:02 52° W
NOSS 3-3 (A) 3.6 03:56:23 57° SSW 03:57:33 81° SE 04:03:50 10° NE
Cosmos 1269 Rocket 3.9 04:00:50 64° SSW 04:01:40 86° WNW 04:06:58 10° NNE
Cosmos 1656 3.5 03:57:05 10° NNW 04:02:34 84° WSW 04:03:20 67° S
USA 267 3.3 03:57:37 10° ENE 04:04:00 54° SE 04:04:58 50° SSE
Cosmos 1933 Rocket 3.9 04:05:05 10° N 04:09:13 54° ENE 04:09:13 54° ENE
S3M 4.4 04:06:09 10° N 04:12:24 53° ENE 04:14:08 42° ESE
ARIANE 5 R/B 3.8 04:14:14 30° W 04:14:14 30° W 04:18:00 10° NW
Cosmos 2285 Rocket 4.1 04:21:27 51° SE 04:22:23 55° ESE 04:28:33 10° NNE
Cosmos 1553 Rocket 3.9 04:16:21 10° NNW 04:22:25 73° W 04:23:40 56° SSW
Orbus 7S? 4.3 04:25:00 37° NNE 04:25:00 37° NNE 04:26:47 10° NE
Cosmos 1626 4.1 04:26:23 19° WNW 04:26:23 19° WNW 04:28:15 10° NNW
H-2A R/B 3.6 04:26:26 33° W 04:26:26 33° W 04:29:50 10° NNW
NOSS 3-3 (C) 3.9 04:24:50 42° WSW 04:26:45 69° NW 04:33:06 10° NE
Cosmos 1697 Rocket 2.8 04:22:19 10° NNW 04:27:56 66° ENE 04:29:08 52° ESE
Lacrosse 5 rocket 4.3 04:27:16 10° NNW 04:29:54 16° NNE 04:32:29 10° NE
Lacrosse 4 Rocket 2.4 04:27:07 10° NW 04:30:02 39° WNW 04:30:02 39° WNW
Meteor 1-13 Rocket 4.4 04:30:31 57° SE 04:31:26 65° E 04:37:17 10° NNE
USA 59 Rocket 1.3 04:27:44 10° NW 04:30:55 35° W 04:30:55 35° W
Cosmos 1980 Rocket 3.3 04:29:36 10° NNW 04:34:55 38° NE 04:37:27 25° ESE
USA 234 3.9 04:33:01 10° ESE 04:39:20 53° NNE 04:45:40 10° NW
Cosmos 44 Rocket 3.6 04:34:55 10° NNW 04:39:49 60° NE 04:40:30 54° E
COSMOS 2406 4.4 04:43:35 28° ESE 04:43:51 28° ESE 04:48:41 10° NE
Cosmos 1607 3.9 04:42:48 57° SSW 04:44:13 80° ESE 04:50:44 10° NE
In-Cosmos 22 4.2 04:43:35 62° SSE 04:44:24 72° E 04:50:08 10° NNE
Cosmos 1655 Rocket 4.0 04:49:02 55° SSE 04:50:23 71° E 04:56:45 10° NNE
Meteor 2-10 Rocket 4.3 04:45:42 10° N 04:51:23 51° ENE 04:52:52 41° ESE
Cosmos 2228 Rocket 3.7 04:57:36 47° E 04:57:36 47° E 05:01:42 10° NNE
Cosmos 1908 4.4 04:56:21 10° NNW 04:58:41 36° NW 04:58:41 36° NW
Meteor 1-15 Rocket 4.1 04:55:19 10° N 05:01:00 84° E 05:01:52 65° SSE
Cosmos 2266 Rocket 4.0 04:59:49 53° SW 05:01:11 68° W 05:07:26 10° N
Meteor 1-22 Rocket 3.9 04:59:26 10° N 05:04:46 88° E 05:05:25 70° SSE
Cosmos 1707 4.2 05:09:13 28° NW 05:09:13 28° NW 05:11:49 10° NNW
Cosmos 883 Rocket 4.4 05:02:32 10° N 05:08:47 80° W 05:10:08 57° S
Cosmos 1441 Rocket 4.2 05:07:48 10° NNW 05:10:14 39° NNW 05:10:14 39° NNW
Cosmos 2082 Rocket 2.3 05:12:28 55° SE 05:13:07 59° ESE 05:18:44 10° NNE
Cosmos 1833 Rocket 3.5 05:13:06 32° WSW 05:15:01 42° WNW 05:20:21 10° NNE
Cosmos 1400 Rocket 3.1 05:17:44 63° NNE 05:17:44 63° NNE 05:21:10 10° NNE
BREEZE-M DEB (TANK) 3.0 05:17:32 80° NE 05:17:32 80° NE 05:25:07 10° ESE
Meteor 1-12 Rocket 4.2 05:13:06 10° N 05:19:01 89° W 05:20:16 59° S
Cosmos 724 4.4 05:20:51 46° WSW 05:22:31 68° NW 05:28:22 10° NNE
CZ-2D R/B 4.4 05:20:24 10° ENE 05:22:54 13° E 05:25:16 10° ESE
Cosmos 1869 Rocket 4.4 05:18:50 10° NNW 05:22:27 39° WNW 05:22:27 39° WNW
Cosmos 1733 Rocket 3.1 05:18:38 10° N 05:22:54 70° ENE 05:22:54 70° ENE
Cosmos 1140 Rocket 4.4 05:22:15 35° W 05:23:31 40° WNW 05:28:27 10° N
DELTA 2 R/B (1) 4.3 05:28:24 37° ESE 05:28:24 37° ESE 05:32:00 10° E
GP-B 3.5 05:22:50 10° N 05:26:58 51° WNW 05:26:58 51° WNW
H-2A R/B 3.0 05:25:00 10° N 05:29:05 37° WNW 05:29:24 37° W
Cosmos 1346 Rocket 3.4 05:26:38 10° N 05:30:15 49° ENE 05:30:15 49° ENE
Okean 2 4.4 05:36:49 36° E 05:36:49 36° E 05:40:25 10° NNE
Resurs 1-4 Rocket 4.1 05:33:36 10° NE 05:37:07 18° E 05:39:11 14° ESE
Cosmos 1300 3.5 05:38:57 10° NNW 05:41:29 41° NW 05:41:29 41° NW
Cosmos 676 Rocket 4.0 05:43:28 60° SSE 05:44:18 72° ESE 05:49:38 10° NNE
Cosmos 407 Rocket 4.4 05:44:50 33° W 05:46:14 39° WNW 05:51:10 10° N
SL-14 R/B 3.9 05:47:14 46° NW 05:47:14 46° NW 05:50:32 10° N
Nimbus 7 Rocket 4.4 05:40:53 10° NNE 05:46:56 87° WNW 05:48:36 51° SSW
Cosmos 2251 Rocket 4.3 05:45:41 35° W 05:46:58 41° WNW 05:51:58 10° N
USA 267 3.8 05:40:41 10° NE 05:47:00 54° NNW 05:52:17 15° W
Cosmos 468 Rocket 3.9 05:43:26 10° NNW 05:48:46 88° ENE 05:49:57 56° SSE
Cosmos 1954 Rocket 3.9 05:49:14 61° SSW 05:50:10 85° WNW 05:55:32 10° NNE
Cosmos 1953 3.1 05:46:33 10° N 05:50:17 42° ENE 05:50:40 40° E
Meteor 2-20 Rocket 4.5 05:43:46 10° N 05:50:20 89° W 05:52:34 45° S
Cosmos 1703 Rocket 4.4 05:50:10 37° ESE 05:50:49 40° E 05:54:59 10° NNE
Cosmos 1190 Rocket 4.2 05:51:47 49° WSW 05:52:52 60° WNW 05:58:07 10° NNE
Cosmos 381 Rocket 4.4 05:47:21 10° NNW 05:53:46 74° WSW 05:55:45 46° S
Cosmos 1862 Rocket 3.7 05:55:26 56° W 05:55:29 56° W 05:59:46 10° N
CZ-2C R/B 4.3 05:52:18 10° ESE 05:56:36 28° ENE 06:00:56 10° N
Cosmos 1763 Rocket 3.7 05:52:35 10° NNW 05:57:44 52° WSW 05:58:08 51° WSW
SL-8 R/B 3.6 05:53:16 10° WNW 05:58:04 84° NNE 06:02:51 10° ESE
SL-08 R/B 4.4 05:57:41 47° S 05:59:38 88° E 06:05:50 10° N
Cosmos 2333 Rocket 4.5 05:56:05 10° N 06:00:32 23° NE 06:04:57 10° E
ATLAS CENTAUR R/B 4.4 05:50:52 10° NW 06:03:24 51° WSW 06:07:30 34° S
Cosmos 2322 Rocket 3.9 06:00:01 10° N 06:05:02 31° NE 06:10:01 10° ESE
Cosmos 1745 Rocket 4.3 06:02:34 36° SSE 06:05:05 61° E 06:11:16 10° NNE
NOSS 3-4 (A) 4.1 05:59:41 10° NW 06:06:31 52° WSW 06:09:12 38° S
NOSS 3-4 (C) 4.1 05:59:47 10° NW 06:06:37 53° WSW 06:09:21 37° S
Aureole 3 4.5 06:09:07 25° NW 06:09:07 25° NW 06:10:51 10° N
Lacrosse 5 rocket 2.5 06:05:17 10° NW 06:09:12 41° NNE 06:12:57 10° ESE
Cosmos 1356 Rocket 3.9 06:09:45 45° WNW 06:09:46 45° WNW 06:13:44 10° N
Cosmos 1697 Rocket 4.3 06:07:30 10° WNW 06:10:50 19° W 06:10:50 19° W
NPP 4.3 06:07:47 10° NNE 06:12:59 46° E 06:15:04 31° SSE
MOZ.5/SAFIR/RUBIN 5/SL-8 3.8 06:13:57 46° SSE 06:15:20 80° ENE 06:20:05 10° N
Cosmos 540 Rocket 3.7 06:10:33 10° NNW 06:15:32 49° WSW 06:16:03 48° SW
Cosmos 1980 Rocket 2.9 06:13:43 10° NW 06:18:50 35° WSW 06:19:10 35° WSW
Okean 1-7 3.0 06:19:50 59° WSW 06:20:15 63° W 06:24:32 10° N
USA 234 3.3 06:18:11 23° SSE 06:22:19 57° SW 06:28:46 10° NW
Okean 3 4.3 06:23:25 34° W 06:23:35 34° WNW 06:27:22 10° N
ADEOS II 3.6 06:19:20 10° NE 06:23:51 29° E 06:26:50 17° SE
Cosmos 1315 Rocket 2.5 06:25:30 76° SSW 06:25:47 88° W 06:29:42 10° N
COSMOS 2406 3.9 06:25:37 31° WSW 06:27:52 47° WNW 06:33:26 10° NNE
IDEFIX/ARIANE 42P 2.8 06:23:26 10° NNE 06:28:40 65° ESE 06:30:44 36° S
Helios 1A Rocket 3.8 06:29:13 33° W 06:29:13 33° W 06:32:15 10° NNW
Nadezhda 1 Rocket 4.0 06:22:28 10° N 06:28:54 84° W 06:32:02 33° S
Cosmos 2369 4.3 06:25:15 10° NW 06:30:27 37° WSW 06:31:08 36° WSW
SJ 16-02 2.8 06:30:07 23° SE 06:31:38 29° E 06:35:22 10° NE
Cosmos 1455 2.5 06:43:20 10° NNW 06:46:21 42° WNW 06:46:21 42° WNW
Genesis I 3.5 06:46:39 43° SE 06:47:00 44° ESE 06:50:24 10° NE
CZ-2C R/B 3.8 06:42:15 10° NNE 06:47:58 55° E 06:51:28 23° S
Cosmos 1850 Rocket 4.0 06:46:59 38° SSW 06:49:05 82° WNW 06:54:23 10° NNE
Cosmos 1782 Rocket 3.4 06:44:54 10° N 06:49:17 83° W 06:50:51 39° S
SL-16 R/B 2.1 06:44:09 10° NNW 06:49:51 82° WSW 06:54:18 17° SSE
Cosmos 1908 Rocket 4.1 06:45:46 10° NNW 06:49:56 41° W 06:50:35 38° WSW
Cosmos 1741 Rocket 4.0 06:52:11 36° SSW 06:54:20 78° WNW 06:59:37 10° NNE
RESURS DK-1 4.2 06:53:03 10° N 06:56:42 31° NE 07:00:21 10° ESE
Cosmos 2082 Rocket 3.8 06:54:17 15° W 06:57:36 25° NW 07:02:17 10° N
Meteor 1-4 Rocket 3.9 07:01:44 20° WNW 07:01:44 20° WNW 07:03:44 10° NNW
AQUA 4.5 06:57:35 10° NNE 07:02:11 49° E 07:05:10 20° SSE
Cosmos 2219 Rocket 3.8 06:57:16 10° N 07:02:26 35° NE 07:07:36 10° ESE
CZ-2D R/B 2.1 06:58:05 10° NNE 07:03:36 86° WNW 07:06:34 28° SSW
ATLAS 2AS CENTAUR R/B 4.0 06:57:16 10° NNW 07:03:43 41° NE 07:09:56 10° ESE
Cosmos 968 Rocket 3.4 07:02:01 32° SSW 07:04:24 88° WNW 07:09:34 10° NNE
CRYOSAT 2 4.4 07:00:44 10° N 07:05:39 82° E 07:08:31 25° S
H-2A R/B 3.8 07:02:43 10° N 07:06:35 48° WNW 07:07:46 35° WSW
Cosmos 1709 Rocket 4.1 07:03:38 28° SSW 07:07:08 68° W 07:13:31 10° N
Cosmos 2237 4.4 07:04:31 10° NW 07:10:03 50° WSW 07:13:32 22° S
SL-16 R/B 2.9 07:04:15 10° SSE 07:10:27 67° ENE 07:16:41 10° N
Cosmos 2360 Rocket 2.4 07:05:56 10° NNW 07:11:38 75° ENE 07:17:17 10° SSE
DELTA 2 R/B (1) 3.7 07:09:07 21° WSW 07:12:41 50° S 07:18:01 10° ESE
Cosmos 2181 Rocket 4.2 07:06:53 10° N 07:13:16 73° E 07:19:31 10° SSE
Meteor 1-24 Rocket 4.1 07:09:20 18° S 07:13:55 67° E 07:19:53 10° NNE
Cosmos 841 Rocket 4.2 07:09:52 10° NW 07:14:34 34° WSW 07:16:16 28° SW
SL-27 R/B 1.8 07:15:10 57° S 07:15:38 77° ESE 07:18:26 10° NNE
Cosmos 1825 4.4 07:14:39 10° SE 07:17:05 18° E 07:19:32 10° NE
OAO 3 Rocket 4.2 07:16:59 26° SSW 07:17:16 27° S 07:21:21 10° SE
Resurs 1-4 Rocket 2.2 07:12:08 10° N 07:17:19 62° WNW 07:20:15 26° SW
Cosmos 839 Rocket 4.5 07:11:11 10° NNW 07:18:26 70° NE 07:24:37 10° SE
Cosmos 1242 Rocket 2.8 07:19:20 33° W 07:19:28 33° WNW 07:22:07 10° N
MSX 4.1 07:16:07 10° N 07:21:42 55° WNW 07:25:08 23° SW
Cosmos 1892 4.4 07:21:23 10° SSE 07:24:22 27° E 07:27:23 10° NNE
Cosmos 2242 Rocket 3.9 07:23:09 28° SW 07:25:14 53° WNW 07:29:37 10° N
Cosmos 1953 4.2 07:23:36 10° NW 07:25:43 14° W 07:25:47 14° W
FENGYUN 3A 3.6 07:22:48 10° NNE 07:28:13 84° WNW 07:32:03 20° SSW
Cosmos 1408 2.9 07:30:11 31° WSW 07:30:44 34° WNW 07:33:30 10° N
IRAS Rocket 4.5 07:25:24 10° NNE 07:30:53 67° ESE 07:35:36 14° S
Sich 1 Rocket 4.4 07:27:08 10° N 07:31:33 52° ENE 07:35:54 10° SSE
Cosmos 2151 Rocket 4.1 07:29:21 10° N 07:33:48 60° E 07:38:10 10° SSE
SL-4 R/B 3.0 07:31:45 22° SSW 07:33:57 39° SE 07:38:06 10° ENE
Cosmos 2098 Rocket 3.7 07:30:44 10° NNW 07:36:00 75° W 07:42:10 10° S
Tiangong 0.0 07:36:09 14° SSE 07:36:32 14° SSE 07:38:19 10° ESE
CZ-2C R/B 3.1 07:33:41 21° SSW 07:36:41 40° W 07:41:33 10° NNW
EXPRESS MD2 3.6 07:36:16 20° W 07:38:08 54° NNW 07:42:45 10° ENE
SL-8 R/B 4.5 07:36:05 10° W 07:40:10 29° SW 07:44:15 10° SSE
SL-24 R/B 4.5 07:38:28 17° SSW 07:42:10 57° W 07:46:56 10° NNW
Cosmos 1814 Rocket 4.1 07:38:25 10° NNW 07:43:31 55° WSW 07:48:38 10° S
Cosmos 2333 Rocket 2.2 07:39:38 10° NNW 07:45:20 68° WSW 07:51:01 10° SSE
Okean 2 Rocket 3.2 07:42:14 10° N 07:46:39 76° E 07:51:02 10° SSE
Lacrosse 5 rocket 1.9 07:43:53 10° WNW 07:47:26 30° SW 07:50:49 10° S
Cosmos 1674 Rocket 3.7 07:43:34 12° S 07:47:34 78° E 07:52:02 10° N
Cosmos 2322 Rocket 2.5 07:43:51 10° NW 07:49:11 44° WSW 07:54:31 10° S
Meteor 2-5 Rocket 4.0 07:50:25 15° SSW 07:55:11 58° WNW 08:01:05 10° N
Cosmos 405 Rocket 2.6 07:53:12 10° N 07:56:49 79° E 08:00:27 10° SSE
ALOS 2.3 07:56:48 10° N 08:01:23 63° WNW 08:05:29 13° SSW
Cosmos 1570 Rocket 4.1 07:56:41 10° NNW 08:02:02 89° W 08:07:22 10° SSE
ADEOS II 2.8 07:58:42 10° N 08:03:32 39° WNW 08:07:43 13° SW
ATLAS CENTAUR R/B 2.8 08:01:39 10° S 08:04:33 25° ESE 08:07:30 10° ENE
Cosmos 1378 Rocket 3.7 08:01:01 14° SSW 08:04:40 57° W 08:08:55 10° N
Cosmos 2208 Rocket 4.3 08:00:10 10° NNW 08:05:28 74° ENE 08:10:40 10° SSE
IDEFIX/ARIANE 42P 4.3 08:04:04 10° NNW 08:07:40 19° WNW 08:11:16 10° WSW
Cosmos 2074 Rocket 4.1 08:02:57 10° SSW 08:09:06 65° W 08:15:19 10° N
SJ 16-02 2.6 08:06:53 13° WSW 08:09:56 27° WNW 08:13:39 10° N
Okean 1 Rocket 3.0 08:08:17 10° N 08:12:38 89° ENE 08:16:57 10° S
METEOR-M 4.3 08:08:38 10° NNE 08:14:00 80° ESE 08:19:20 10° SSW
CZ-2C R/B 2.9 08:12:07 10° NNE 08:16:50 58° E 08:21:22 10° S
BREEZE-M DEB (TANK) 2.1 08:14:11 10° WNW 08:17:17 52° NNE 08:19:18 10° E
IRS-1D 4.4 08:13:33 10° NNE 08:18:46 52° E 08:23:55 10° S
UNK 4.1 08:15:23 10° S 08:19:50 45° W 08:24:18 10° NNW
Envisat 3.0 08:14:46 10° NNE 08:19:52 90° W 08:24:57 10° SSW
Cosmos 158 Rocket 4.1 08:19:32 10° NNW 08:24:57 86° WSW 08:30:17 10° SSE
CZ-4C R/B 4.3 08:24:45 10° SE 08:26:35 12° ESE 08:28:33 10° E
Cosmos 2184 Rocket 4.4 08:21:38 10° SSW 08:27:37 49° WNW 08:33:43 10° N
SL-16 R/B 4.0 08:31:14 10° WNW 08:32:58 11° W 08:34:43 10° WSW
RESURS DK-1 3.4 08:31:00 10° NW 08:34:18 24° WSW 08:37:36 10° SSW
Cosmos 2322 3.7 08:30:08 10° NNW 08:35:51 79° WSW 08:41:31 10° SSE
DMSP B5D2-2 4.3 08:30:54 10° SSE 08:36:07 82° ENE 08:41:24 10° NNW
Nadezhda 3 Rocket 4.2 08:32:26 10° NNW 08:38:39 56° W 08:44:46 10° SSW
Cosmos 2154 Rocket 4.3 08:32:57 10° SSW 08:38:54 49° WNW 08:44:56 10° N
NOAA 11 4.3 08:36:09 10° N 08:41:38 70° WNW 08:47:05 10° SSW
